Mytilini, Greece

7:40 AM EEST on August 21, 2017 (GMT +0300)
Odysseas Elytis

Weather History for LGMT - August, 2017

Change the Weather History Date:

Sunday, August 13, 2017

  Actual Average Record
Temperature  
Mean Temperature 84 °F -  
Max Temperature 96 °F 83 °F 97 °F (2014)
Min Temperature 71 °F 68 °F 68 °F (1997)
Cooling Degree Days 18    
Growing Degree Days 34 (Base 50)    
Moisture  
Dew Point 61 °F    
Average Humidity 49    
Maximum Humidity 74    
Minimum Humidity 9    
Precipitation  
Precipitation 0.00 in 0.01 in - ()
Sea Level Pressure  
Sea Level Pressure 29.67 in    
Wind  
Wind Speed 2 mph ()    
Max Wind Speed 10 mph    
Max Gust Speed -    
Visibility 7.0 miles    
Events      
Averages and records for this station are not official NWS values.
T = Trace of Precipitation, MM = Missing Value Source: Averaged Metar Reports

Daily Weather History Graph

Daily Weather History Graph

Search for Another Location

Airport or City:

Trip Planner

Search our weather history database for the weather conditions in past years. The results will help you decide how hot, cold, wet, or windy it might be!

Date:

Astronomy

Aug. 13, 2017 Rise Set
Actual Time 6:25 AM EEST 8:11 PM EEST
Civil Twilight 5:56 AM EEST 8:39 PM EEST
Nautical Twilight 5:21 AM EEST 9:14 PM EEST
Astronomical Twilight 4:44 AM EEST 9:51 PM EEST
Moon 11:36 PM EEST (8/13) 12:01 PM EEST (8/13)
Length of Visible Light 14h 43m
Length of Day
13h 46m
Waning Gibbous, 68% of the Moon is Illuminated
Aug 13
Waning Gibbous
Aug 15
Last Quarter
Aug 21
New
Aug 29
First Quarter
Sep 6
Full

Hourly Weather History & Observations

Time (EEST) Temp. Heat Index Dew Point Humidity Pressure Visibility Wind Dir Wind Speed Gust Speed Precip Events Conditions
4:50 AM 73.4 °F - 53.6 °F 50% 29.65 in - Calm Calm - N/A   Clear
5:20 AM 73.4 °F - 53.6 °F 50% 29.65 in - Calm Calm - N/A   Clear
5:50 AM 71.6 °F - 53.6 °F 53% 29.65 in - Calm Calm - N/A   Clear
6:00 AM 72 °F - 54 °F 43% 29.67 in 9 mi Calm Calm - -  
6:20 AM 71.6 °F - 53.6 °F 53% 29.68 in - Calm Calm - N/A   Clear
6:50 AM 71.6 °F - 53.6 °F 53% 29.68 in - Calm Calm - N/A   Clear
7:20 AM 73.4 °F - 53.6 °F 50% 29.68 in - Calm Calm - N/A   Clear
7:50 AM 73.4 °F - 57.2 °F 57% 29.68 in - Calm Calm - N/A   Clear
8:20 AM 75.2 °F - 57.2 °F 53% 29.68 in - Calm Calm - N/A   Clear
8:50 AM 77.0 °F - 64.4 °F 65% 29.68 in - North 4.6 mph - N/A   Clear
9:00 AM 78 °F - 68 °F 63% 29.69 in 6 mi North 4.6 mph - -  
9:20 AM 77.0 °F - 68.0 °F 74% 29.68 in - Calm Calm - N/A   Clear
9:50 AM 80.6 °F 83.9 °F 69.8 °F 70% 29.68 in - Calm Calm - N/A   Clear
10:20 AM 80.6 °F 83.9 °F 69.8 °F 70% 29.68 in - Calm Calm - N/A   Clear
10:50 AM 80.6 °F 82.7 °F 66.2 °F 61% 29.68 in - Calm Calm - N/A   Clear
11:20 AM 80.6 °F 82.7 °F 66.2 °F 61% 29.68 in - Calm Calm - N/A   Clear
11:50 AM 84.2 °F 87.3 °F 68.0 °F 58% 29.68 in - Calm Calm - N/A   Clear
12:00 PM 85 °F - 68 °F 47% 29.70 in 9 mi Calm Calm - -  
12:20 PM 84.2 °F 87.3 °F 68.0 °F 58% 29.68 in - SE 5.8 mph - N/A   Clear
12:50 PM 89.6 °F - 50.0 °F 26% 29.65 in - SW 9.2 mph - N/A   Clear
1:20 PM 93.2 °F - 48.2 °F 21% 29.65 in - SSW 9.2 mph - N/A   Clear
1:50 PM 95.0 °F - 44.6 °F 18% 29.65 in - SSW 9.2 mph - N/A   Clear
2:20 PM 96.8 °F - 42.8 °F 16% 29.65 in - SSW 6.9 mph - N/A   Clear
2:50 PM 96.8 °F - 42.8 °F 16% 29.65 in - SW 5.8 mph - N/A   Clear
3:00 PM 96 °F - 43 °F 9% 29.67 in 6 mi SW 5.8 mph - -  
3:20 PM 95.0 °F - 46.4 °F 19% 29.65 in - Variable 3.5 mph - N/A   Clear
3:50 PM 93.2 °F 92.6 °F 59.0 °F 32% 29.65 in - NNW 8.1 mph - N/A   Clear
4:20 PM 91.4 °F 92.1 °F 62.6 °F 38% 29.65 in - NNW 10.4 mph - N/A   Clear
4:50 PM 89.6 °F 92.2 °F 66.2 °F 46% 29.65 in - NNW 8.1 mph - N/A   Clear
5:20 PM 89.6 °F 92.2 °F 66.2 °F 46% 29.65 in - Variable 3.5 mph - N/A   Clear
5:50 PM 89.6 °F 92.2 °F 66.2 °F 46% 29.65 in - Calm Calm - N/A   Clear
6:00 PM 89 °F - 66 °F 37% 29.67 in 6 mi Calm Calm - -  
6:20 PM 87.8 °F 91.4 °F 68.0 °F 52% 29.65 in - Variable 2.3 mph - N/A   Clear
6:50 PM 87.8 °F 91.4 °F 68.0 °F 52% 29.68 in - Variable 3.5 mph - N/A   Clear
7:20 PM 86.0 °F 89.4 °F 68.0 °F 55% 29.68 in - Variable 2.3 mph - N/A   Clear
7:50 PM 84.2 °F 87.3 °F 68.0 °F 58% 29.68 in - ESE 4.6 mph - N/A   Clear
8:20 PM 82.4 °F 86.3 °F 69.8 °F 66% 29.68 in - SE 4.6 mph - N/A   Clear
8:50 PM 80.6 °F 83.2 °F 68.0 °F 65% 29.71 in - SSE 4.6 mph - N/A   Clear
9:00 PM 81 °F - 68 °F 57% 29.72 in 6 mi SSE 4.6 mph - -  
9:20 PM 80.6 °F 83.2 °F 68.0 °F 65% 29.71 in - Variable 2.3 mph - N/A   Clear
9:50 PM 80.6 °F 83.2 °F 68.0 °F 65% 29.74 in - Variable 2.3 mph - N/A   Clear
10:20 PM 78.8 °F - 66.2 °F 65% 29.74 in - Variable 3.5 mph - N/A   Clear